{"data":{"norad_id":67368,"intl_designator":"2026-004F","name":"LEMUR-2-WOBLER","alt_names":[],"object_type":"PAYLOAD","status":"ACTIVE","operator":null,"country":"US","launch_date":"2026-01-11","launch_site_code":"AFWTR","launch_vehicle":null,"mission":null,"orbit_class":"UNKNOWN","rcs_meters":null,"size_class":null,"mass_kg":null,"dimensions":null,"purposes":["earth_obs"],"wikipedia_slug":null,"has_3d_model":false,"image_url":null,"decayed_at":null,"tle_current":{"epoch":"2026-09-19T19:22:13.528128Z","epoch_age_seconds":74242,"freshness":"FRESH","line1":"1 67368U 26004F   26262.80710102  .00002620  00000+0  28357-3 0  9996","line2":"2 67368  97.8112 260.1387 0008131 168.5295 191.6108 14.89088602 37378","mean_motion":14.89088602,"eccentricity":0.0008131,"inclination_deg":97.8112,"raan_deg":260.1387,"arg_perigee_deg":168.5295,"mean_anomaly_deg":191.6108,"bstar":0.00028357,"rev_number":3737,"period_min":96.703446528698,"perigee_km":595.10729037573,"apogee_km":606.45640820845,"semimajor_km":6978.9188492921,"source":"CELESTRAK","updated_at":"2026-09-20T09:00:34.882063Z"}}}